This demonstration page uses our WeatherBlox Daily Observations layout. Learn more.

Left ArrowRight Arrow

Hourly Observations for May 9, 2020

Temp ( °F °C ) Dew Point ( °F °C ) Humidity (%) Winds ( mph kmh ) Pressure ( in mb ) Visibility ( mi km ) Precip ( " mm )
12:15 am 00:15 Clear 43 5.9 28 -2.2 56 56 SSE 6 9 30.3 1026 10 16.0934 0 0
12:35 am 00:35 Clear 42 5.6 28 -2 58 58 SSE 6 9 30.29 1026 10 16.0934 0 0
12:55 am 00:55 Clear 40 4.7 29 -1.6 64 64 SSE 7 11 30.3 1026 10 16.0934 0 0
1:15 am 01:15 Clear 40 4.3 29 -1.6 66 66 SE 9 15 30.29 1026 10 16.0934 0 0
1:35 am 01:35 Clear 40 4.5 29 -1.4 66 66 SE 8 13 30.29 1026 10 16.0934 0 0
1:55 am 01:55 Clear 41 4.9 30 -1.2 65 65 SSE 6 9 30.28 1025 10 16.0934 0 0
2:15 am 02:15 Clear 41 4.8 30 -1.3 65 65 SSE 7 11 30.27 1025 10 16.0934 0 0
2:35 am 02:35 Clear 40 4.5 30 -1.1 67 67 SSE 7 11 30.27 1025 10 16.0934 0 0
2:55 am 02:55 Clear 39 3.8 30 -1.2 70 70 SSE 5 7 30.28 1025 10 16.0934 0 0
3:15 am 03:15 Clear 40 4.6 29 -1.5 65 65 S 5 7 30.27 1025 10 16.0934 0 0
3:35 am 03:35 Clear 40 4.5 30 -1.3 66 66 S 6 9 30.26 1025 10 16.0934 0 0
3:55 am 03:55 Clear 40 4.2 30 -1.3 68 68 SSW 6 9 30.28 1025 10 16.0934 0 0
4:15 am 04:15 Mostly Cloudy 41 5.1 30 -1 65 65 SSW 7 11 30.26 1025 10 16.0934 0 0
4:35 am 04:35 Partly Cloudy 43 6 30 -1.2 60 60 S 6 9 30.25 1024 10 16.0934 0 0
4:55 am 04:55 Mostly Cloudy 42 5.6 31 -0.7 64 64 SSW 7 11 30.26 1025 10 16.0934 0 0
5:15 am 05:15 Cloudy 44 6.5 32 0 64 64 SSW 9 15 30.25 1025 10 16.0934 0 0
5:35 am 05:35 Cloudy 45 7 31 -0.5 59 59 SSW 8 13 30.25 1024 10 16.0934 0 0
5:55 am 05:55 Cloudy 45 7.4 30 -1.1 55 55 SW 8 13 30.24 1024 10 16.0934 0 0
6:15 am 06:15 Mostly Cloudy 44 6.8 31 -0.6 60 60 SSW 7 11 30.24 1024 10 16.0934 0 0
6:35 am 06:35 Mostly Cloudy 44 6.7 31 -0.7 60 60 SSW 8 13 30.24 1024 10 16.0934 0 0
6:55 am 06:55 Cloudy 44 6.9 31 -0.8 58 58 SW 10 17 30.24 1024 10 16.0934 0 0
7:15 am 07:15 Cloudy 45 7.2 30 -1 56 56 SW 12 19 30.24 1024 10 16.0934 0 0
7:35 am 07:35 Mostly Cloudy 45 7.2 30 -0.9 57 57 SW 12 19 30.25 1024 10 16.0934 0 0
7:55 am 07:55 Partly Cloudy 46 7.5 31 -0.6 57 57 SW 12 19 30.25 1024 10 16.0934 0 0
8:10 am 08:10 Partly Cloudy 46 7.8 31 -0.3 57 57 SW 10 17 30.24 1024 10 16.0934 0 0
8:35 am 08:35 Mostly Cloudy 47 8.4 32 -0.1 55 55 SW 8 13 30.25 1024 10 16.0934 0 0
8:55 am 08:55 Cloudy 48 8.8 32 0.1 55 55 SW 9 15 30.24 1024 10 16.0934 0 0
9:15 am 09:15 Mostly Cloudy 50 10.2 33 0.5 51 51 SW 9 15 30.23 1024 10 16.0934 0 0
9:35 am 09:35 Mostly Cloudy 52 11.1 31 -0.3 46 46 SW 9 15 30.22 1023 10 16.0934 0 0
9:55 am 09:55 Cloudy 53 11.6 31 -0.3 44 44 W 7 11 30.22 1023 10 16.0934 0 0
10:15 am 10:15 Cloudy 54 12 31 -0.6 42 42 WSW 10 17 30.22 1023 10 16.0934 0 0
10:35 am 10:35 Cloudy 54 12.3 31 -0.7 41 41 SW 13 20 30.21 1023 10 16.0934 0 0
10:55 am 10:55 Cloudy 56 13.4 31 -0.4 39 39 WSW 12 19 30.2 1023 10 16.0934 0 0
11:15 am 11:15 Mostly Cloudy 58 14.3 32 -0.1 38 38 WSW 8 13 30.18 1022 10 16.0934 0 0
11:35 am 11:35 Partly Cloudy 60 15.6 33 0.4 36 36 WSW 9 15 30.16 1021 10 16.0934 0 0
11:55 am 11:55 Mostly Cloudy 59 15.1 32 -0.2 35 35 WSW 12 19 30.17 1022 10 16.0934 0 0
12:15 pm 12:15 Cloudy 57 13.8 34 1.1 42 42 W 15 24 30.18 1022 10 16.0934 0 0
12:35 pm 12:35 Cloudy with Light Rain 56 13.3 36 2.2 47 47 WSW 12 19 30.18 1022 10 16.0934 0 0
12:55 pm 12:55 Cloudy with Drizzle 55 12.8 36 2.3 49 49 WSW 13 20 30.18 1022 10 16.0934 0 0
1:15 pm 13:15 Mostly Cloudy 58 14.7 36 2.1 43 43 WSW 13 20 30.16 1021 10 16.0934 0 0
1:35 pm 13:35 Mostly Cloudy 58 14.7 34 1.3 40 40 W 14 22 30.14 1021 10 16.0934 0 0
1:55 pm 13:55 Cloudy 58 14.6 33 0.7 39 39 SW 12 19 30.14 1021 10 16.0934 0 0
2:15 pm 14:15 Cloudy 57 13.8 32 0.2 40 40 WSW 12 19 30.15 1021 10 16.0934 0 0
2:35 pm 14:35 Cloudy 56 13.4 32 -0.1 40 40 WSW 13 20 30.15 1021 10 16.0934 0 0
2:55 pm 14:55 Cloudy with Light Rain 57 13.7 35 1.4 43 43 WSW 12 19 30.15 1021 10 16.0934 0 0
3:15 pm 15:15 Cloudy 56 13.3 35 1.9 46 46 WSW 10 17 30.16 1021 10 16.0934 0 0
3:35 pm 15:35 Cloudy 58 14.4 35 1.5 42 42 WSW 12 19 30.14 1021 10 16.0934 0 0
3:55 pm 15:55 Mostly Cloudy 60 15.5 35 1.4 39 39 WSW 10 17 30.11 1020 10 16.0934 0 0
4:15 pm 16:15 Cloudy with Drizzle 58 14.3 35 1.5 42 42 WSW 6 9 30.13 1020 10 16.0934 0 0
4:35 pm 16:35 Cloudy with Drizzle 58 14.3 37 2.7 46 46 N 9 15 30.13 1020 10 16.0934 0 0
4:55 pm 16:55 Cloudy 54 12 41 5.1 63 63 NNE 16 26 30.16 1021 10 16.0934 0 0
5:15 pm 17:15 Cloudy 54 12 42 5.3 64 64 N 10 17 30.16 1021 10 16.0934 0 0
5:35 pm 17:35 Cloudy 55 12.5 43 6.1 65 65 NE 8 13 30.14 1021 10 16.0934 0 0
5:55 pm 17:55 Cloudy 56 13.3 44 6.7 65 65 N 15 24 30.14 1021 10 16.0934 0 0
6:15 pm 18:15 Partly Cloudy 57 14 42 5.6 57 57 N 14 22 30.14 1021 10 16.0934 0 0
6:35 pm 18:35 Partly Cloudy 57 13.7 39 4.1 53 53 N 16 26 30.15 1021 10 16.0934 0 0
6:55 pm 18:55 Mostly Cloudy 58 14.5 38 3.1 47 47 NNW 13 20 30.13 1020 10 16.0934 0 0
7:15 pm 19:15 Partly Cloudy 58 14.3 37 2.9 46 46 NNW 9 15 30.14 1020 10 16.0934 0 0
7:35 pm 19:35 Sunny 58 14.5 34 1 40 40 NNW 12 19 30.13 1020 10 16.0934 0 0
7:55 pm 19:55 Partly Cloudy 56 13.3 34 1.1 44 44 N 17 28 30.16 1021 10 16.0934 0 0
8:15 pm 20:15 Sunny 55 12.7 32 0.1 42 42 N 16 26 30.18 1022 10 16.0934 0 0
8:35 pm 20:35 Sunny 53 11.5 32 0 45 45 N 20 31 30.22 1023 10 16.0934 0 0
8:55 pm 20:55 Clear 51 10.5 32 0 49 49 N 16 26 30.24 1024 10 16.0934 0 0
9:15 pm 21:15 Clear 49 9.5 31 -0.8 49 49 N 20 31 30.27 1025 10 16.0934 0 0
9:35 pm 21:35 Partly Cloudy 48 9 30 -1.1 50 50 N 16 26 30.28 1025 10 16.0934 0 0
9:55 pm 21:55 Mostly Cloudy 47 8.3 30 -1.2 52 52 N 21 33 30.31 1026 10 16.0934 0 0
10:15 pm 22:15 Mostly Cloudy 46 7.6 29 -1.5 53 53 N 20 31 30.32 1027 10 16.0934 0 0
10:35 pm 22:35 Partly Cloudy 45 7 29 -1.5 55 55 N 13 20 30.33 1027 10 16.0934 0 0
10:55 pm 22:55 Clear 44 6.5 28 -2 55 55 N 15 24 30.35 1028 10 16.0934 0 0
11:15 pm 23:15 Clear 43 6.2 28 -2 56 56 N 17 28 30.36 1028 10 16.0934 0 0
11:35 pm 23:35 Clear 42 5.5 28 -2 59 59 NNW 14 22 30.38 1029 10 16.0934 0 0
11:55 pm 23:55 Clear 41 4.8 28 -2 62 62 N 12 19 30.39 1029 10 16.0934 0 0

Powered by AerisWeather